Location: Unspecified
(49.2170°N, 0.0000°E)
Time: 05:43:28
(UTC+00:00)

Vanguard 1 - Pass Details

Date: 27 January 2021
Orbit: 649 x 3834 km, 34.2° (Epoch: 08 March)

Event Time Altitude Azimuth Distance (km) Brightness Sun altitude
Rises 17:51:47 0° 277° (W) 7,677 16.0 -10.4°
Reaches altitude 10° 17:57:33 10° 270° (W) 6,843 15.7 -11.3°
Maximum altitude 18:16:32 34° 216° (SW) 4,986 14.1 -14.3°
Drops below altitude 10° 18:32:35 10° 160° (SSE) 5,762 13.9 -16.9°
Sets 18:36:59 0° 152° (SSE) 6,377 14.0 -17.6°
